Weather History for Monticello, KY

Change the Weather History Date:

Thursday, July 4, 2013

  Actual Average Record
Temperature  
Mean Temperature 70 °F -  
Max Temperature 75 °F 85 °F 97 °F (2012)
Min Temperature 64 °F 64 °F 48 °F (1968)
Cooling Degree Days 4    
Growing Degree Days 20 (Base 50)    
Moisture  
Dew Point 68 °F    
Average Humidity 99    
Maximum Humidity 100    
Minimum Humidity 93    
Precipitation  
Precipitation 1.74 in - - ()
Sea Level Pressure  
Sea Level Pressure 30.16 in    
Wind  
Wind Speed 4 mph (ESE)    
Max Wind Speed 10 mph    
Max Gust Speed -    
Visibility 4 miles    
Events Fog , Rain    
Averages and records for this station are not official NWS values.
T = Trace of Precipitation, MM = Missing Value Source: NWS Daily Summary

Daily Weather History Graph

Daily Weather History Graph

Search for Another Location

Airport:

Trip Planner

Search our weather history database for the weather conditions in past years. The results will help you decide how hot, cold, wet, or windy it might be!

Date:

Astronomy

Jul. 04, 2013 Rise Set
Actual Time 5:25 AM CDT 8:02 PM CDT
Civil Twilight 4:54 AM CDT 8:32 PM CDT
Nautical Twilight 4:17 AM CDT 9:10 PM CDT
Astronomical Twilight 3:34 AM CDT 9:52 PM CDT
Moon 2:39 AM CDT (7/4) 5:07 PM CDT (7/4)
Length of Visible Light 15h 37m
Length of Day
14h 36m
Waning Crescent, 11% of the Moon is Illuminated
Jul 4
Waning Crescent
Jul 8
New
Jul 15
First Quarter
Jul 22
Full
Jul 29
Last Quarter

Hourly Weather History & Observations

Time (CDT) Temp. Dew Point Humidity Pressure Visibility Wind Dir Wind Speed Gust Speed Precip Events Conditions
12:56 AM 68.0 °F 65.8 °F 93% 30.16 in 10.0 mi SE 4.6 mph - N/A   Partly Cloudy
1:56 AM 68.0 °F 65.8 °F 93% 30.16 in 10.0 mi SSE 4.6 mph - N/A   Clear
2:56 AM 68.0 °F 66.9 °F 96% 30.15 in 10.0 mi Calm Calm - N/A   Scattered Clouds
3:56 AM 68.9 °F 66.9 °F 93% 30.17 in 8.0 mi South 3.5 mph - 0.00 in Rain Light Rain
4:07 AM 68.0 °F 66.2 °F 94% 30.17 in 2.5 mi SE 3.5 mph - 0.02 in Rain Rain
4:36 AM 66.2 °F 66.2 °F 100% 30.17 in 1.5 mi Calm Calm - 0.12 in Rain Heavy Rain
4:44 AM 66.2 °F 66.2 °F 100% 30.17 in 1.2 mi ESE 3.5 mph - 0.17 in Rain Heavy Rain
4:56 AM 66.9 °F 66.9 °F 100% 30.15 in 4.0 mi Calm Calm - 0.19 in Rain Light Rain
5:19 AM 66.2 °F 66.2 °F 100% 30.16 in 4.0 mi Calm Calm - 0.03 in Rain Rain
5:56 AM 66.9 °F 66.9 °F 100% 30.15 in 5.0 mi Calm Calm - 0.05 in Rain Light Rain
6:41 AM 66.2 °F 66.2 °F 100% 30.17 in 10.0 mi Variable 5.8 mph - 0.00 in Rain Light Rain
6:56 AM 68.0 °F 68.0 °F 100% 30.17 in 3.0 mi ESE 4.6 mph - 0.02 in Rain Light Rain
7:03 AM 68.0 °F 68.0 °F 100% 30.17 in 7.0 mi Calm Calm - 0.00 in Rain Light Rain
7:19 AM 68.0 °F 68.0 °F 100% 30.18 in 2.0 mi ESE 4.6 mph - 0.01 in Rain Light Rain
7:56 AM 68.9 °F 68.9 °F 100% 30.17 in 3.0 mi ESE 4.6 mph - 0.07 in Rain Light Rain
8:04 AM 69.8 °F 69.8 °F 100% 30.18 in 2.0 mi Variable 3.5 mph - 0.02 in Rain Rain
8:10 AM 68.0 °F 68.0 °F 100% 30.18 in 1.2 mi SE 6.9 mph - 0.03 in Rain Rain
8:37 AM 68.0 °F 68.0 °F 100% 30.18 in 1.8 mi Variable 4.6 mph - 0.10 in Rain Rain
8:56 AM 68.0 °F 68.0 °F 100% 30.18 in 1.5 mi ESE 5.8 mph - 0.16 in Rain Rain
9:08 AM 68.0 °F 68.0 °F 100% 30.18 in 1.2 mi SE 4.6 mph - 0.02 in Rain Rain
9:11 AM 68.0 °F 68.0 °F 100% 30.18 in 1.0 mi SSE 4.6 mph - 0.03 in Rain Rain
9:17 AM 68.0 °F 68.0 °F 100% 30.18 in 0.5 mi Calm Calm - 0.09 in Fog , Rain Heavy Rain
9:23 AM 68.0 °F 68.0 °F 100% 30.17 in 0.5 mi East 3.5 mph - 0.14 in Fog , Rain Heavy Rain
9:33 AM 68.0 °F 68.0 °F 100% 30.17 in 0.8 mi NE 3.5 mph - 0.19 in Rain Rain
9:42 AM 68.0 °F 68.0 °F 100% 30.17 in 0.8 mi NE 3.5 mph - 0.22 in Rain Rain
9:47 AM 68.0 °F 68.0 °F 100% 30.17 in 1.0 mi ENE 4.6 mph - 0.23 in Rain Rain
9:56 AM 68.9 °F 68.9 °F 100% 30.17 in 10.0 mi East 5.8 mph - 0.23 in Rain Light Rain
10:24 AM 69.8 °F 69.8 °F 100% 30.17 in 10.0 mi SE 4.6 mph - 0.00 in Rain Light Rain
10:56 AM 68.9 °F 68.9 °F 100% 30.18 in 2.5 mi SE 4.6 mph - 0.01 in Rain Light Rain
11:01 AM 69.8 °F 69.8 °F 100% 30.18 in 1.8 mi SE 4.6 mph - 0.01 in Rain Light Rain
11:16 AM 69.8 °F 69.8 °F 100% 30.18 in 2.0 mi Variable 3.5 mph - 0.05 in Rain Rain
11:20 AM 69.8 °F 69.8 °F 100% 30.17 in 1.8 mi ESE 3.5 mph - 0.06 in Rain Rain
11:30 AM 69.8 °F 69.8 °F 100% 30.17 in 1.8 mi Variable 3.5 mph - 0.08 in Rain Rain
11:35 AM 69.8 °F 69.8 °F 100% 30.17 in 1.8 mi SE 3.5 mph - 0.08 in Rain Rain
11:40 AM 69.8 °F 69.8 °F 100% 30.17 in 1.2 mi Calm Calm - 0.11 in Rain Rain
11:49 AM 69.8 °F 69.8 °F 100% 30.17 in 2.0 mi ESE 3.5 mph - 0.11 in Rain Light Rain
11:56 AM 70.9 °F 70.9 °F 100% 30.17 in 10.0 mi Variable 3.5 mph - 0.11 in   Mostly Cloudy
12:03 PM 71.6 °F 71.6 °F 100% 30.16 in 10.0 mi ESE 4.6 mph - N/A   Mostly Cloudy
12:12 PM 71.6 °F 71.6 °F 100% 30.16 in 10.0 mi SE 5.8 mph - 0.01 in   Mostly Cloudy
12:21 PM 71.6 °F 71.6 °F 100% 30.17 in 10.0 mi SSE 4.6 mph - 0.01 in   Mostly Cloudy
12:56 PM 72.9 °F 72.0 °F 97% 30.17 in 10.0 mi SSE 5.8 mph - 0.01 in Rain Light Rain
1:14 PM 73.4 °F 71.6 °F 94% 30.16 in 2.5 mi ESE 3.5 mph - 0.01 in Rain Rain
1:30 PM 73.4 °F 73.4 °F 100% 30.16 in 5.0 mi ESE 4.6 mph - 0.01 in Rain Light Rain
1:41 PM 73.4 °F 73.4 °F 100% 30.15 in 8.0 mi SSE 5.8 mph - 0.01 in Rain Light Rain
1:56 PM 74.8 °F 73.9 °F 97% 30.14 in 10.0 mi Variable 5.8 mph - 0.01 in Rain Light Rain
2:20 PM 75.2 °F 73.4 °F 94% 30.14 in 8.0 mi SSE 6.9 mph - 0.00 in Rain Light Rain
2:47 PM 71.6 °F 71.6 °F 100% 30.15 in 10.0 mi WSW 9.2 mph - 0.01 in Rain Light Rain
2:56 PM 70.9 °F 70.9 °F 100% 30.15 in 7.0 mi West 10.4 mph - 0.01 in   Overcast
3:56 PM 70.0 °F 70.0 °F 100% 30.14 in 2.0 mi North 5.8 mph - 0.01 in Rain Light Rain
4:15 PM 68.0 °F 68.0 °F 100% 30.14 in 1.5 mi North 6.9 mph - 0.04 in Rain Rain
4:21 PM 68.0 °F 68.0 °F 100% 30.14 in 1.0 mi NNW 5.8 mph - 0.06 in Rain Rain
4:27 PM 66.2 °F 66.2 °F 100% 30.15 in 0.8 mi NNW 5.8 mph - 0.08 in Rain Heavy Rain
4:39 PM 66.2 °F 66.2 °F 100% 30.15 in 0.5 mi NW 4.6 mph - 0.16 in Fog , Rain Heavy Rain
4:46 PM 66.2 °F 66.2 °F 100% 30.15 in 1.0 mi North 4.6 mph - 0.17 in Rain Light Rain
4:48 PM 66.2 °F 66.2 °F 100% 30.15 in 1.2 mi NNW 9.2 mph - 0.17 in Rain Light Rain
4:56 PM 66.9 °F 66.9 °F 100% 30.14 in 2.0 mi North 9.2 mph - 0.18 in Rain Rain
5:07 PM 66.2 °F 66.2 °F 100% 30.14 in 1.2 mi North 3.5 mph - 0.01 in Rain Heavy Rain
5:12 PM 66.2 °F 66.2 °F 100% 30.15 in 0.8 mi NNE 4.6 mph - 0.03 in Rain Rain
5:18 PM 66.2 °F 66.2 °F 100% 30.15 in 1.2 mi North 3.5 mph - 0.04 in Rain Rain
5:23 PM 66.2 °F 66.2 °F 100% 30.15 in 1.0 mi NNW 3.5 mph - 0.08 in Rain Rain
5:27 PM 66.2 °F 66.2 °F 100% 30.15 in 0.5 mi NW 4.6 mph - 0.12 in Fog , Rain Heavy Rain
5:30 PM 66.2 °F 66.2 °F 100% 30.15 in 0.5 mi WNW 4.6 mph - 0.13 in Fog , Rain Heavy Rain
5:38 PM 66.2 °F 66.2 °F 100% 30.15 in 1.0 mi NW 4.6 mph - 0.18 in Rain Heavy Rain
5:42 PM 66.2 °F 66.2 °F 100% 30.16 in 1.2 mi NW 4.6 mph - 0.19 in Rain Rain
5:48 PM 66.2 °F 66.2 °F 100% 30.16 in 2.0 mi NW 5.8 mph - 0.20 in Rain Light Rain
5:56 PM 65.8 °F 65.8 °F 100% 30.16 in 1.8 mi WNW 10.4 mph - 0.22 in Rain Heavy Rain
6:01 PM 66.2 °F 66.2 °F 100% 30.16 in 1.0 mi WNW 6.9 mph - 0.04 in Rain Heavy Rain
6:08 PM 64.4 °F 64.4 °F 100% 30.18 in 0.8 mi WSW 6.9 mph - 0.08 in Rain Heavy Rain
6:10 PM 64.4 °F 64.4 °F 100% 30.17 in 1.0 mi WSW 4.6 mph - 0.09 in Rain Heavy Rain
6:18 PM 64.4 °F 64.4 °F 100% 30.17 in 0.8 mi West 6.9 mph - 0.16 in Rain Heavy Rain
6:44 PM 64.4 °F 64.4 °F 100% 30.17 in 1.0 mi Calm Calm - 0.33 in Rain Heavy Rain
6:49 PM 64.4 °F 64.4 °F 100% 30.17 in 1.5 mi Calm Calm - 0.33 in Rain Light Rain
6:56 PM 64.9 °F 64.9 °F 100% 30.18 in 2.5 mi SSW 3.5 mph - 0.34 in Rain Light Rain
6:59 PM 64.4 °F 64.4 °F 100% 30.18 in 3.0 mi SSW 3.5 mph - 0.00 in Rain Light Rain
7:09 PM 64.4 °F 64.4 °F 100% 30.17 in 8.0 mi Calm Calm - 0.00 in Rain Light Rain
7:56 PM 64.9 °F 64.9 °F 100% 30.17 in 3.0 mi Calm Calm - 0.01 in Rain Light Rain
8:28 PM 64.4 °F 64.4 °F 100% 30.15 in 10.0 mi ESE 3.5 mph - 0.00 in   Mostly Cloudy
8:56 PM 64.9 °F 64.9 °F 100% 30.16 in 9.0 mi Calm Calm - 0.00 in Rain Light Rain
9:56 PM 64.9 °F 64.9 °F 100% 30.17 in 5.0 mi Calm Calm - 0.00 in Rain Light Rain
10:10 PM 64.4 °F 64.4 °F 100% 30.18 in 4.0 mi Calm Calm - 0.01 in Rain Light Rain
10:56 PM 64.9 °F 64.9 °F 100% 30.17 in 4.0 mi Calm Calm - 0.08 in Rain Light Rain
11:56 PM 64.9 °F 64.9 °F 100% 30.15 in 6.0 mi East 6.9 mph - 0.03 in Rain Light Rain